SCP
0 0 0 0 0 0 0 0 0 0 0 0 0 0 0 0 0 0 0 0 0 0 0 0 0 0 0 0 0 0 0 0 0 0 0 0 0 0 0 0 0 0 0 0 0 0 0 0 0
0 0 0 0 0 0 0 0 0 0 0 0 0 0 0 0 0 0 0 0 0 0 0 0 0 0 0 0 0 0 0 0 0 0 0 0 0 0 0 0 0 0 0 0 0 0 0 0 0
0 0 0 0 0 0 0 0 0 0 0 0 0 0 0 0 0 0 0 0 0 0 0 0 0 0 0 0 0 0 0 0 0 0 0 0 0 0 0 0 0 0 0 0 0 0 0 0 0
0 0 0 0 0 0 0 0 0 0 0 0 0 0 0 0 0 0 0 0 0 0 0 0 0 0 0 0 0 0 0 0 0 0 0 0 0 0 0 0 0 0 0 0 0 0 0 0 0
0 0 0 0 0 0 0 0 0 0 0 0 0 0 0 0 0 0 0 0 0 0 0 0 0 0 0 0 0 0 0 0 0 0 0 0 0 0 0 0 0 0 0 0 0 0 0 0 0
0 0 0 0 0 0 0 0 0 0 0 0 0 0 0 0 0 0 0 0 0 0 0 0 0 0 0 0 0 0 0 0 0 0 0 0 0 0 0 0 0 0 0 0 0 0 0 0 0
0 0 0 0 0 0 0 0 0 0 0 0 0 0 0 0 0 0 0 0 0 0 0 0 0 0 0 0 0 0 0 0 0 0 0 0 0 0 0 0 0 0 0 0 0 0 0 0 0
0 0 0 0 0 0 0 0 0 0 0 0 0 0 0 0 0 0 0 0 0 0 0 0 0 0 0 0 0 0 0 0 0 0 0 0 0 0 0 0 0 0 0 0 0 0 0 0 0
0 0 0 0 0 0 0 0 0 0 0 0 0 0 0 0 1 1 0 0 0 0 0 0 0 0 0 0 0 0 0 0 0 0 0 0 0 0 0 0 0 0 0 0 0 0 0 0 0
0 0 0 0 0 0 0 0 0 0 0 0 0 0 0 1 1 1 1 1 0 0 0 0 0 0 0 0 0 0 0 0 0 0 0 0 0 0 0 0 0 0 0 0 0 0 0 0 0
0 0 0 0 0 0 0 0 0 0 0 0 0 0 0 1 1 1 0 0 0 1 1 1 1 1 1 0 0 0 0 0 0 0 0 0 0 0 0 0 0 0 0 0 0 0 0 0 0
0 0 0 0 0 0 0 0 0 0 0 0 0 0 0 1 1 0 0 0 0 1 1 1 1 1 1 1 0 0 0 0 0 0 0 0 0 0 0 1 0 0 0 0 0 0 0 0 0
0 0 0 0 0 0 0 0 0 0 0 0 0 0 0 0 0 0 0 0 0 1 1 1 1 1 1 1 1 1 0 0 0 0 0 0 0 0 1 1 1 0 0 0 0 0 0 0 0
0 0 0 0 0 0 0 0 0 0 0 0 0 0 0 0 0 0 0 1 1 1 1 1 1 1 1 1 1 1 1 0 0 0 0 0 0 0 0 1 0 0 0 0 0 0 0 0 0
0 0 0 0 0 0 0 0 0 0 0 0 0 0 0 0 0 0 1 1 1 1 1 1 1 1 1 1 1 1 1 1 0 0 0 0 0 0 0 0 0 0 0 0 0 0 0 0 0
0 0 0 0 0 0 0 0 0 0 0 0 0 0 0 0 0 0 1 1 1 1 1 1 1 1 1 1 1 1 1 1 0 0 0 0 0 0 0 0 0 0 0 0 0 0 0 0 0
0 0 0 0 0 0 0 0 0 0 0 0 0 0 0 0 0 0 1 1 1 1 1 1 1 1 1 1 1 1 1 1 0 0 0 0 0 0 0 0 0 0 0 0 0 0 0 0 0
0 0 0 0 0 0 0 0 0 0 0 0 0 0 0 0 0 1 1 1 1 1 1 1 1 1 1 1 1 1 1 1 1 0 0 0 0 0 0 0 0 0 0 0 0 0 0 0 0
0 0 0 0 0 0 0 0 0 0 0 0 0 0 0 0 0 1 1 1 1 1 1 1 1 1 1 1 1 1 1 1 1 1 1 0 0 0 0 0 0 0 0 0 0 0 0 0 0
0 0 0 0 0 0 0 0 0 0 0 0 0 0 0 0 0 1 1 1 1 1 1 1 1 1 1 1 1 1 1 1 1 1 1 1 0 0 0 0 0 0 0 0 0 0 0 0 0
0 0 0 0 0 0 0 0 0 0 0 0 0 0 0 0 0 1 1 1 1 1 1 1 1 1 1 1 1 1 1 1 1 1 1 1 0 0 0 0 1 1 0 0 0 0 0 0 0
0 0 0 0 0 0 0 0 0 0 0 0 0 0 0 0 0 0 1 1 1 1 1 1 1 1 1 1 1 1 1 1 1 1 1 1 0 0 0 0 1 1 0 0 0 0 0 0 0
0 0 0 0 0 0 0 0 0 0 0 0 0 0 0 0 0 0 0 0 1 1 1 1 1 1 1 1 1 1 1 1 1 1 1 1 1 0 0 0 0 0 0 0 0 0 0 0 0
0 0 0 0 0 0 0 0 0 0 0 0 0 0 0 0 0 0 0 0 0 1 1 1 1 1 1 1 1 1 1 1 1 1 1 1 1 1 0 0 0 0 0 0 0 0 0 0 0
0 0 0 0 0 0 0 0 0 0 0 0 0 0 0 0 0 0 0 0 0 1 1 1 1 1 1 1 1 1 1 1 1 1 1 1 1 1 0 0 0 0 0 0 0 0 0 0 0
0 0 0 0 0 0 0 0 0 0 0 0 0 0 0 0 0 0 0 0 0 1 1 1 1 1 1 1 1 1 1 1 1 1 1 0 0 0 0 0 0 0 0 0 0 0 0 0 0
0 0 0 0 0 0 0 0 0 0 0 0 0 0 0 0 0 0 0 0 0 0 1 1 1 1 1 1 0 0 0 0 0 0 0 0 0 0 0 0 0 0 0 0 0 0 0 0 0
0 0 0 0 0 0 0 0 0 0 0 0 0 0 0 0 0 0 0 0 0 0 1 1 0 1 1 0 0 0 0 0 0 0 0 0 0 0 0 0 0 0 0 0 0 0 0 0 0
0 0 0 0 0 0 0 0 0 0 0 0 0 0 0 0 0 0 0 0 0 0 0 0 0 0 0 0 0 0 0 0 0 0 0 0 0 0 0 0 0 0 0 0 0 0 0 0 0
0 0 0 0 0 0 0 0 0 0 0 0 0 0 0 0 0 0 0 0 0 0 0 0 0 0 0 0 0 0 0 0 0 0 0 0 0 0 0 0 0 0 0 0 0 0 0 0 0
Wind_Speed
8 7 7 6 8 3 5 6 4 4 4 4 3 2 4 5 6 7 6 9 9 12 14 14 11 10 10 9 9 9 9 9 9 9 9 9 9 9 9 9 10 11 12 12 12 12 12 12 12
5 6 7 7 5 3 6 5 4 5 5 4 3 2 3 5 6 6 7 9 10 12 12 12 13 11 10 10 9 9 9 10 9 9 9 9 9 9 9 10 10 11 11 11 12 12 12 11 11
6 7 7 5 1 2 6 5 5 5 4 3 3 3 3 5 4 5 7 11 11 11 11 13 13 11 10 10 10 9 9 9 9 9 9 9 8 8 8 9 10 10 10 11 11 11 11 11 10
6 7 6 4 3 3 4 4 3 4 4 3 3 4 5 5 3 6 11 12 12 12 11 14 12 11 10 10 10 10 9 9 9 8 8 8 8 8 8 8 9 9 10 10 10 10 10 10 9
7 6 6 4 3 4 2 2 1 2 3 3 2 4 5 5 5 9 12 12 11 11 10 13 11 10 9 9 9 9 9 9 8 8 8 8 7 7 7 7 8 9 9 9 9 9 9 9 8
6 5 5 4 4 3 2 2 2 2 3 3 3 3 6 6 7 9 11 11 10 10 10 12 12 10 9 8 8 8 8 8 8 7 7 7 7 7 7 7 7 8 8 9 8 8 8 8 7
6 5 4 2 3 4 3 2 2 2 3 2 1 2 6 7 7 9 10 10 10 10 9 9 11 11 10 8 7 7 8 7 7 7 7 7 7 7 6 6 7 7 8 8 8 8 7 7 7
6 5 5 4 3 3 4 2 1 1 2 3 2 2 4 8 9 10 10 9 9 9 8 8 8 8 9 10 9 8 7 7 7 7 7 7 8 7 7 7 7 7 7 7 7 7 8 7 6
6 7 4 3 2 2 3 2 2 1 3 3 1 2 6 11 12 11 10 9 9 8 7 7 8 7 7 7 9 9 9 8 8 8 7 7 6 7 7 6 7 6 7 7 7 7 7 7 7
6 6 2 1 2 1 1 2 2 4 4 4 4 4 8 11 12 12 11 11 10 10 8 7 7 7 6 5 6 5 6 6 6 5 6 5 4 3 4 8 7 7 6 7 7 7 8 6 5
5 4 0 1 2 3 2 2 3 5 4 4 4 6 9 11 11 11 11 10 10 9 8 7 7 6 6 4 4 3 3 4 5 5 5 4 4 4 4 4 6 6 7 6 8 8 4 4 3
5 3 4 3 2 4 4 4 4 6 4 2 1 5 9 11 11 10 10 9 8 8 8 7 7 7 5 4 4 4 3 3 4 5 5 5 3 3 3 3 4 4 3 3 3 3 4 4 4
7 4 3 4 5 5 5 6 5 5 4 2 3 7 9 10 9 8 8 8 8 8 8 7 7 6 6 5 3 4 4 4 4 4 5 4 4 4 4 3 3 3 3 4 3 3 4 4 4
3 4 5 5 5 5 7 7 7 5 2 3 5 7 8 8 8 8 8 8 8 8 8 7 7 6 6 5 4 3 3 3 3 3 4 5 4 3 4 4 3 3 3 3 3 4 3 3 2
4 7 7 6 5 5 6 9 8 4 3 4 5 6 7 7 8 8 8 8 8 7 7 7 7 6 6 5 4 3 3 3 3 3 4 5 5 4 4 4 4 3 4 4 3 4 3 3 3
8 10 8 5 4 4 9 8 3 3 5 5 5 5 6 7 7 7 7 7 7 7 7 6 6 7 7 5 4 3 3 3 3 3 4 5 5 5 4 4 4 4 4 4 3 3 3 3 3
10 9 7 4 4 4 9 7 1 2 5 5 5 5 6 6 7 6 7 8 7 7 7 7 7 7 7 6 4 4 3 3 3 3 3 4 5 6 5 4 3 4 4 4 4 3 3 3 2
7 8 7 7 3 6 8 6 2 3 5 5 4 5 5 5 5 5 5 6 7 7 7 7 7 7 6 6 5 4 4 4 4 3 3 5 5 6 5 4 4 5 4 4 3 3 2 2 2
7 9 9 7 3 6 7 6 5 3 4 4 4 4 5 5 5 5 5 6 7 7 7 8 7 7 6 5 5 5 5 4 4 4 4 5 6 6 5 4 5 5 4 4 5 4 4 3 2
10 11 10 7 3 6 6 7 5 3 3 2 3 3 3 3 4 5 5 6 6 7 7 7 8 7 8 6 5 4 4 4 4 3 3 4 5 6 6 5 5 5 4 5 5 4 3 3 3
12 11 10 8 5 8 8 8 7 5 3 2 2 2 2 3 3 4 5 6 6 6 6 6 7 7 7 7 5 4 4 4 4 4 4 4 4 5 5 6 5 5 5 5 6 5 5 3 3
11 8 9 10 10 8 8 8 5 5 4 2 2 2 2 2 3 3 4 5 5 5 5 6 7 6 6 7 6 7 5 5 5 4 4 4 5 5 5 5 5 5 4 5 6 6 4 4 4
9 6 9 11 12 11 10 10 4 5 4 2 1 1 2 2 3 3 4 4 4 5 5 6 6 6 6 6 6 6 5 4 4 4 5 5 5 5 6 5 5 5 4 5 5 5 5 4 4
6 7 8 10 11 13 10 10 4 2 2 1 1 1 1 2 3 2 3 4 4 5 5 6 6 6 6 6 6 6 6 5 5 5 5 5 4 5 6 5 5 5 4 5 5 5 6 4 3
10 9 7 9 10 8 4 7 1 2 1 1 2 1 1 1 2 2 3 3 3 4 5 5 5 5 5 5 5 6 6 5 6 5 5 4 4 4 5 5 5 4 4 5 5 5 5 5 5
10 11 9 8 8 4 5 6 2 3 2 2 2 2 2 2 2 2 2 2 3 4 4 5 5 4 4 4 4 4 4 4 4 4 3 4 3 3 4 4 5 5 5 5 5 5 5 4 4
9 11 9 10 10 9 5 3 4 4 3 3 2 2 3 2 2 1 2 2 2 3 3 3 4 4 4 4 4 4 4 3 3 4 4 3 3 3 5 5 4 5 5 5 5 4 4 4 5
8 7 7 10 8 9 7 6 3 4 3 3 2 1 2 2 2 2 1 2 2 2 2 2 3 3 4 5 4 4 4 4 3 3 3 3 4 3 4 4 5 5 5 5 5 4 4 4 4
8 9 8 9 9 9 7 1 4 3 2 1 1 2 2 2 2 2 2 2 3 2 2 2 3 4 4 4 3 3 4 4 3 3 3 3 4 4 4 4 4 4 5 4 4 5 5 5 5
8 9 9 9 8 8 8 1 6 4 3 2 2 2 2 3 2 3 3 3 2 2 2 2 2 3 3 3 3 3 2 3 3 3 3 3 4 5 5 4 4 4 5 4 4 5 6 6 6
Wind_Direction
199 207 226 237 235 192 96 90 78 88 80 65 61 35 35 28 16 54 91 134 137 138 137 147 146 144 142 139 137 135 132 129 126 124 123 121 117 114 111 110 109 109 108 110 111 113 113 112 112
210 218 232 239 243 140 100 85 79 63 69 99 114 112 84 68 50 86 122 136 142 139 143 145 143 146 144 140 138 138 135 132 130 128 126 124 121 117 115 112 111 111 112 113 113 113 114 115 115
220 238 256 245 224 76 92 79 73 83 105 135 118 87 48 64 87 110 126 145 145 142 144 137 148 148 147 143 140 140 137 135 133 131 128 126 124 121 118 117 115 113 112 113 115 117 117 115 115
239 227 236 234 136 75 60 75 97 132 127 130 131 111 93 59 71 114 135 149 147 149 150 138 150 149 149 147 144 142 141 139 137 135 131 128 126 124 121 120 119 117 115 117 118 118 118 118 118
241 251 225 192 145 107 89 61 157 159 133 136 152 108 99 81 90 122 142 151 152 149 148 140 147 148 148 148 146 144 142 142 139 136 134 130 127 123 123 123 121 121 121 121 120 118 119 120 124
239 239 227 189 137 123 110 116 175 182 139 131 147 131 96 102 128 141 147 152 149 148 145 138 146 148 149 150 149 145 141 140 138 135 135 134 130 128 126 123 122 124 124 122 120 118 119 120 124
263 246 233 202 153 143 97 123 191 172 149 134 141 127 114 127 135 144 148 149 146 148 147 148 157 157 153 150 153 147 142 141 138 137 136 136 135 134 134 129 128 128 128 126 125 122 121 119 120
276 253 213 200 193 131 111 142 152 244 99 99 193 183 128 135 142 146 147 148 148 151 152 156 160 161 167 160 155 152 148 144 144 144 144 146 150 151 151 149 137 136 132 130 129 128 127 125 125
251 242 214 195 208 125 126 174 138 146 147 151 150 32 89 132 148 151 152 156 157 157 161 167 163 164 170 164 153 164 161 156 164 161 160 178 174 162 166 137 133 141 138 135 134 136 137 142 139
237 241 219 14 317 344 183 231 193 196 192 184 159 122 125 147 160 166 168 170 169 168 171 174 167 169 171 165 158 173 173 167 180 165 174 181 163 165 149 133 141 145 145 145 141 147 165 183 155
233 259 308 258 302 290 247 237 229 232 223 221 200 159 155 165 173 179 180 178 174 170 173 174 172 171 172 167 168 169 171 167 177 170 179 181 179 171 165 158 157 164 171 166 158 176 170 155 141
233 244 275 285 296 268 257 247 237 245 270 322 231 170 171 180 185 188 185 179 174 173 176 175 173 172 175 171 170 176 178 173 177 173 189 183 180 178 171 168 162 170 168 164 163 157 147 147 146
230 233 240 268 265 265 256 246 246 244 259 266 186 179 183 188 190 190 186 179 176 175 176 173 179 174 173 176 187 181 182 183 175 178 186 189 181 180 170 165 171 173 162 167 161 153 148 153 153
235 255 260 254 247 242 246 246 237 235 227 195 185 190 192 194 192 186 184 184 182 179 176 170 177 175 178 179 183 182 183 180 186 181 182 195 190 176 175 172 170 169 165 158 162 153 159 157 148
243 246 238 220 226 220 238 234 224 215 208 202 200 196 192 194 192 190 187 187 183 178 173 174 180 175 176 181 189 184 176 176 182 178 185 195 194 181 187 174 177 168 160 160 166 157 167 166 165
226 235 229 186 205 207 237 242 194 186 207 208 205 200 193 191 195 191 185 185 182 177 173 177 185 178 179 184 188 181 178 179 181 186 186 196 194 190 192 184 178 168 172 170 167 178 173 165 171
217 232 236 203 188 220 239 259 179 213 219 216 209 200 195 188 193 185 181 180 180 180 176 176 185 184 183 182 176 177 175 177 184 193 191 192 196 197 197 188 172 177 175 176 184 158 178 167 177
234 245 244 245 201 243 248 259 255 237 230 225 212 205 199 194 189 175 175 176 177 178 176 180 183 180 178 177 173 179 177 182 185 189 191 194 196 198 201 187 179 184 174 174 171 159 167 173 196
273 264 259 261 270 257 253 260 270 244 233 229 219 214 208 197 177 168 168 172 174 176 178 183 187 179 181 182 182 184 181 185 184 184 186 196 198 194 195 192 178 192 178 176 175 176 166 179 180
250 254 255 250 242 261 258 260 264 234 226 250 244 226 218 198 172 167 167 168 170 176 180 183 188 186 190 188 190 191 183 188 182 179 180 194 197 197 191 192 192 189 180 175 177 180 185 176 182
244 253 262 269 257 241 250 247 231 200 184 208 247 245 228 208 188 173 170 171 171 172 179 179 185 189 194 188 186 183 178 185 183 183 181 189 192 188 190 185 195 191 194 179 184 185 195 189 190
246 248 262 263 258 247 241 261 216 195 185 198 228 236 227 205 197 184 175 171 173 176 178 181 181 182 187 190 194 189 191 192 190 190 181 185 189 183 177 180 185 191 191 179 192 184 194 199 197
259 271 260 260 260 263 242 257 224 183 218 226 241 257 228 195 186 184 181 178 173 176 177 179 176 179 182 187 188 194 205 204 192 190 183 189 181 182 178 179 181 187 193 188 196 177 198 199 210
241 244 247 246 246 247 242 249 246 207 244 270 289 260 210 180 170 174 177 173 171 171 169 170 174 178 181 188 191 199 203 205 197 195 188 189 177 179 183 186 184 193 197 190 196 196 196 204 210
224 237 238 229 226 239 209 239 243 69 44 343 346 11 127 155 166 172 175 171 173 173 168 167 172 176 178 183 188 198 199 200 196 197 192 191 178 179 181 189 191 194 197 198 197 200 206 202 205
222 237 250 260 258 243 195 231 129 101 88 68 72 81 106 121 126 150 164 168 173 173 172 175 179 177 177 181 187 193 194 200 192 195 198 188 190 182 174 189 194 198 198 201 198 204 202 202 213
225 231 255 269 271 263 220 179 171 158 140 119 104 84 70 79 97 110 150 169 179 175 169 178 182 179 183 183 184 188 198 208 189 185 201 189 185 188 181 190 196 200 198 199 202 206 201 200 215
255 245 236 249 257 258 236 219 202 161 149 132 114 75 62 74 93 101 111 156 166 171 168 169 175 182 184 188 186 184 190 195 189 194 194 192 186 185 183 191 197 200 200 201 202 198 193 200 207
213 220 238 250 259 266 261 201 74 129 131 124 94 63 58 65 85 95 101 109 118 130 147 159 171 181 184 185 183 185 189 188 189 199 197 194 191 187 192 193 198 203 203 196 196 209 196 206 208
248 242 236 244 249 254 269 121 91 92 85 79 75 75 76 79 82 89 92 98 106 114 126 137 172 185 177 169 166 164 176 177 186 197 199 197 195 192 190 192 199 203 201 196 203 213 205 209 213